DW8097 Weather Reports


Display with metric or nautical units.
time (UTC)temp
F
wind
direction
speed
MPH
gust
MPH
rain 1hr
in
rain 24hr
in
rain mn
in
humidity
%
barometer
mb
20260831061529 71 232 0.0 0.0 0.00 0.00 0.00 85 1006.6
20260831060022 71 180 0.0 0.0 0.00 0.00 0.00 85 1006.7
20260831054519 71 234 0.0 0.0 0.00 0.00 0.00 85 1006.9
20260831053027 71 264 0.0 0.0 0.00 0.00 0.00 84 1007.0
20260831051517 71 175 0.0 0.0 0.00 0.00 0.00 84 1007.0
20260831050025 72 219 0.0 0.0 0.00 0.00 0.00 84 1007.1
20260831044511 72 169 0.0 0.0 0.00 0.00 0.00 83 1007.3
20260831043009 72 188 0.0 0.0 0.00 0.00 0.00 82 1007.3
20260831041508 72 200 0.0 0.0 0.00 0.00 0.00 82 1007.2
20260831040005 72 193 0.0 3.0 0.00 0.00 0.00 81 1007.5
20260831034600 73 189 0.0 1.0 0.00 0.00 0.00 81 1007.1
20260831033058 73 229 0.0 7.0 0.00 0.00 0.00 81 1007.3
20260831031556 73 134 0.0 1.0 0.00 0.00 0.00 81 1007.3
20260831030056 73 202 0.0 4.0 0.00 0.00 0.00 80 1007.5
20260831024550 74 168 0.0 8.0 0.00 0.00 0.00 79 1007.8
20260831023046 74 218 3.0 11.0 0.00 0.00 0.00 78 1007.8
20260831021544 75 194 0.0 8.0 0.00 0.00 0.00 77 1007.9
20260831020047 75 201 2.0 9.0 0.00 0.00 0.00 76 1007.8
20260831014537 76 164 2.0 8.0 0.00 0.00 0.00 75 1007.7
20260831013035 76 254 1.0 7.0 0.00 0.00 0.00 74 1007.4
20260831011538 77 196 0.0 10.0 0.00 0.00 0.00 72 1007.1
20260831010030 78 230 2.0 10.0 0.00 0.00 0.00 70 1007.0
20260831004527 78 152 2.0 7.0 0.00 0.00 0.00 69 1007.1
20260831003035 79 175 3.0 9.0 0.00 0.00 0.00 67 1007.0
20260831001525 80 229 4.0 17.0 0.00 0.00 0.00 65 1007.0
20260831000026 81 251 0.0 8.0 0.00 0.00 0.00 67 1007.0
20260830234535 81 192 1.0 7.0 0.00 0.00 0.00 67 1006.9
20260830233021 82 192 0.0 3.0 0.00 0.00 0.00 65 1007.0
20260830231521 84 186 2.0 10.0 0.00 0.00 0.00 61 1006.9
20260830230022 86 172 2.0 12.0 0.00 0.00 0.00 60 1006.4
20260830224517 85 252 1.0 8.0 0.00 0.00 0.00 62 1006.3
20260830223016 84 160 4.0 10.0 0.00 0.00 0.00 64 1006.2
20260830221514 86 179 0.0 13.0 0.00 0.00 0.00 60 1006.1
20260830220015 87 213 4.0 14.0 0.00 0.00 0.00 58 1006.1
20260830214512 90 168 2.0 14.0 0.00 0.00 0.00 57 1005.8
20260830213015 88 175 1.0 12.0 0.00 0.00 0.00 58 1006.0
20260830211509 89 155 5.0 11.0 0.00 0.00 0.00 59 1005.9
20260830211507 89 223 5.0 11.0 0.00 0.00 0.00 59 1005.9
20260830210003 89 202 1.0 14.0 0.00 0.00 0.00 58 1006.0
20260830204604 90 184 4.0 10.0 0.00 0.00 0.00 58 1006.3
20260830203056 88 186 0.0 14.0 0.00 0.00 0.00 60 1006.3
20260830201554 86 160 4.0 13.0 0.00 0.00 0.00 64 1006.7
20260830200050 87 202 5.0 15.0 0.00 0.00 0.00 62 1006.5
20260830194547 88 115 3.0 11.0 0.00 0.00 0.00 60 1006.5
20260830193043 87 153 3.0 13.0 0.00 0.00 0.00 61 1006.8
20260830191540 87 175 4.0 10.0 0.00 0.00 0.00 62 1006.6
20260830190044 85 134 3.0 10.0 0.00 0.00 0.00 65 1006.6
20260830184536 84 126 1.0 12.0 0.00 0.00 0.00 67 1006.6
20260830183029 83 113 6.0 13.0 0.00 0.00 0.00 67 1006.7
20260830181525 85 107 9.0 15.0 0.00 0.00 0.00 65 1007.1
20260830180016 81 105 5.0 10.0 0.00 0.00 0.00 72 1007.7
20260830174517 80 94 4.0 11.0 0.00 0.00 0.00 72 1007.8
20260830173038 79 116 4.0 8.0 0.00 0.00 0.00 74 1007.9
20260830171536 78 126 0.0 6.0 0.00 0.00 0.00 76 1008.1
20260830170031 77 160 2.0 6.0 0.00 0.00 0.00 76 1008.0
20260830164525 78 171 0.0 6.0 0.00 0.00 0.00 73 1007.7
20260830163024 78 148 0.0 4.0 0.00 0.00 0.00 73 1007.9
20260830161520 79 159 1.0 5.0 0.00 0.00 0.00 72 1007.6
20260830160018 79 190 2.0 9.0 0.00 0.00 0.00 73 1007.3
20260830154515 77 127 2.0 9.0 0.00 0.00 0.00 76 1007.0
20260830153013 79 113 4.0 12.0 0.00 0.00 0.00 72 1007.1
20260830151513 78 122 1.0 8.0 0.00 0.00 0.00 74 1007.1
20260830150042 75 179 0.0 7.0 0.00 0.00 0.00 81 1007.0
20260830144544 73 115 0.0 7.0 0.00 0.00 0.00 83 1007.0
20260830143040 73 116 0.0 8.0 0.00 0.00 0.00 83 1007.1
20260830141542 74 175 1.0 7.0 0.00 0.00 0.00 80 1007.3
20260830140038 74 173 0.0 7.0 0.00 0.01 0.00 82 1007.4
20260830134542 72 178 0.0 8.0 0.00 0.01 0.00 85 1007.3
20260830133037 72 118 1.0 7.0 0.00 0.01 0.00 86 1007.1
20260830131534 71 128 0.0 5.0 0.00 0.01 0.00 88 1007.3
20260830130040 70 178 1.0 6.0 0.00 0.08 0.00 90 1007.3
20260830124532 69 107 0.0 5.0 0.00 0.08 0.00 91 1007.3
20260830123030 68 181 0.0 2.0 0.00 0.08 0.00 92 1007.2
20260830121537 68 171 0.0 0.0 0.00 0.08 0.00 92 1007.1
20260830120030 67 161 0.0 0.0 0.00 0.19 0.00 92 1007.0
20260830114526 67 180 0.0 0.0 0.00 0.19 0.00 92 1006.7
20260830113023 66 221 0.0 0.0 0.00 0.19 0.00 92 1006.9
20260830111523 66 171 0.0 0.0 0.00 0.19 0.00 91 1006.6
20260830110020 66 197 0.0 0.0 0.00 0.28 0.00 91 1007.3
20260830104547 67 161 0.0 0.0 0.00 0.28 0.00 91 1007.1
20260830103016 67 198 0.0 0.0 0.00 0.28 0.00 91 1007.2
20260830101516 67 180 0.0 0.0 0.00 0.28 0.00 91 1006.9
20260830100016 67 200 0.0 0.0 0.00 0.35 0.00 90 1006.7
20260830094513 67 198 0.0 0.0 0.00 0.35 0.00 90 1006.9
20260830093114 67 176 0.0 0.0 0.00 0.35 0.00 90 1007.0
20260830091542 68 161 0.0 0.0 0.00 0.35 0.00 90 1006.9
20260830090040 68 148 0.0 2.0 0.00 0.35 0.00 89 1006.9
20260830084537 68 161 0.0 1.0 0.00 0.35 0.00 89 1007.0
20260830083052 68 134 0.0 1.0 0.00 0.35 0.00 90 1007.3
20260830081534 67 175 0.0 0.0 0.00 0.35 0.00 90 1007.2
20260830080033 66 210 0.0 0.0 0.00 0.35 0.00 90 1007.3
20260830074530 67 210 0.0 0.0 0.00 0.35 0.00 89 1007.3
20260830073030 67 192 0.0 0.0 0.00 0.35 0.00 89 1007.4
20260830071529 67 192 0.0 0.0 0.00 0.35 0.00 90 1007.5
20260830070027 67 192 0.0 0.0 0.00 0.35 0.00 88 1007.6
20260830064523 67 192 0.0 0.0 0.00 0.35 0.00 87 1007.6
20260830063018 68 192 0.0 0.0 0.00 0.35 0.00 87 1008.0